Terminal Aerodrome Forecast
Issued by NWS St Louis, MO

Home | Current Version | Previous Version | Text Only | Print | Product List | Glossary On
Versions: 1 2 3 4 5 6 7 8 9 10 11 12 13 14 15 16 17 18 19 20 21 22 23 24 25 26 27
000
FTUS43 KLSX 151444 AAA
TAFCOU
TAF AMD
KCOU 151444Z 1515/1612 07005KT 3SM -FZRA BR OVC005
      TEMPO 1515/1516 1SM -FZRA BR
     FM151800 06005KT 5SM -SHRA BR OVC006
     FM160000 09007KT P6SM VCSH OVC008=

USA.gov is the U.S. government's official web portal to all federal, state and local government web resources and services.